Simultaneous Nadir Overpasses (SNOs) Predictions

Prediction of SNOs between LANDSAT-8 and NPP Satellite Orbit:

Table of predicted SNOs for the next 14.0 days since TLE Epoch: 5/8/2015
Index Date (LANDSAT-8) Time (LANDSAT-8) Lat,Lon (LANDSAT-8) SZA (LANDSAT-8 ) Date (NPP) Time (NPP) Lat,Lon (NPP) SZA (NPP ) Distance(km) Time Diff (sec)
1 05/09/2015 02:50:04 70.72, 134.43 53.38 05/09/2015 02:48:59 70.71, 134.51 53.38 3.05 65
2 05/09/2015 03:39:33 -70.65, -58.03 126.70 05/09/2015 03:39:41 -70.63, -58.04 126.71 1.57 8
3 05/09/2015 04:29:08 70.11, 108.83 52.77 05/09/2015 04:30:17 70.08, 110.13 52.72 49.33 69
4 05/11/2015 19:06:30 70.71,-109.69 52.67 05/11/2015 19:05:54 70.69,-109.69 52.66 2.32 36
5 05/11/2015 19:56:00 -70.59, 57.76 127.45 05/11/2015 19:56:36 -70.61, 57.75 127.43 2.25 36
6 05/14/2015 10:33:23 -71.13,-160.80 127.57 05/14/2015 10:32:12 -71.16,-162.03 127.51 44.27 71
7 05/14/2015 11:22:57 70.65, 6.10 51.95 05/14/2015 11:22:49 70.67, 6.09 51.98 2.40 8
8 05/14/2015 12:12:27 -70.54, 173.57 128.17 05/14/2015 12:13:30 -70.54, 173.63 128.17 2.28 63
9 05/17/2015 02:49:55 -70.76, -45.50 128.57 05/17/2015 02:48:58 -70.73, -45.55 128.59 3.19 57
10 05/17/2015 03:39:23 70.60, 121.90 51.27 05/17/2015 03:39:42 70.61, 121.96 51.28 2.56 19
11 05/17/2015 04:29:04 -69.88, -71.49 129.44 05/17/2015 04:30:12 -69.90, -69.62 129.46 71.63 68
12 05/19/2015 19:06:22 -70.71, 70.31 129.21 05/19/2015 19:05:52 -70.67, 70.31 129.24 3.67 30
13 05/19/2015 19:55:49 70.60,-122.21
